User: anonymous   Login
Location: Chenango Forks
(42.2242°N, 75.8278°W)
Time: 23:14:20
(UTC-04:00)
Language:

Coronas F rocket - Orbit

View from above orbital plane
View from above orbital plane
View from above satellite
View from above satellite

Ground track
Ground track

The orbit data is extracted from the following two-line orbital elements,

1 26874U 01032B   16144.94127388 +.00021676 +00000-0 +11621-3 0  9997
2 26874 082.4595 308.4074 0005819 294.5951 065.4709 15.80096757831816
Epoch (UTC): 23 May 2016 22:35:26
Eccentricity: 0.0005819
inclination: 82.4595°
perigee height: 326 km
apogee height: 334 km
right ascension of ascending node: 308.4074°
argument of perigee: 294.5951°
revolutions per day: 15.80096757
mean anomaly at epoch: 65.4709°
orbit number at epoch: 83181

The dashed part of the orbit path shows where the satellite is in the earth's shadow,  

DLR